Location: Hepcat Sky Observatory
(29.9800°N, 95.6500°W)
Time: 12:18:21
(UTC-05:00)

Cosmos 2366 rocket - Visible Passes

Search period start: 24 June 2017 00:00
Search period end: 04 July 2017 00:00
Orbit: 954 x 998 km, 82.9° (Epoch: 23 June)

Date Brightness Start Highest point End Pass type
(mag) Time Alt. Az. Time Alt. Az. Time Alt. Az.
24 Jun 6.2 20:58:44 10° NNW 21:03:49 27° W 21:08:56 10° SW visible
25 Jun 6.8 21:26:22 10° WNW 21:29:04 13° W 21:31:46 10° WSW visible
28 Jun 6.7 20:57:06 10° NW 21:00:40 16° W 21:04:15 10° WSW visible
